• In Hungary
  • List of Countries
  • For 7 days
  • Water Temperature
  • Satellite Maps
  • Weather Map
  • News
  • Weather Widgets
  • user-avatar
    Login

    Hourly Weather Gabrovo

    Today, 23 May, Wednesday

    Time Temperature Precipitation Wind Pressure Humidity
    00:00 +12°C° 0 mm 1 mps 704 mmHg 91%
    01:00 +12°C° 0 mm 1 mps 704 mmHg 91%
    02:00 +12°C° 0 mm 1 mps 704 mmHg 91%
    03:00 +12°C° 0 mm 1 mps 704 mmHg 91%
    04:00 +11°C° 0 mm 1 mps 704 mmHg 91%
    05:00 +11°C° 0 mm 1 mps 704 mmHg 90%
    06:00 +13°C° 0 mm 1 mps 704 mmHg 84%
    07:00 +15°C° 0 mm 1 mps 704 mmHg 78%
    08:00 +18°C° 0 mm 1 mps 705 mmHg 71%
    09:00 +19°C° 0 mm 1 mps 705 mmHg 66%
    10:00 +20°C° 0 mm 2 mps 705 mmHg 61%
    11:00 +21°C° 0 mm 2 mps 705 mmHg 56%
    12:00 +23°C° 0 mm 2 mps 705 mmHg 55%
    13:00 +22°C° 0 mm 3 mps 705 mmHg 53%
    14:00 +24°C° 0 mm 3 mps 705 mmHg 52%
    15:00 +24°C° 0.1 mm 3 mps 704 mmHg 55%
    16:00 +22°C° 0.1 mm 3 mps 704 mmHg 58%
    17:00 +23°C° 0.1 mm 2 mps 704 mmHg 62%
    18:00 +20°C° 0 mm 2 mps 703 mmHg 68%
    19:00 +18°C° 0 mm 2 mps 703 mmHg 74%
    20:00 +16°C° 0 mm 2 mps 702 mmHg 80%
    21:00 +16°C° 0.2 mm 2 mps 702 mmHg 83%
    22:00 +15°C° 0.2 mm 2 mps 702 mmHg 85%
    23:00 +14°C° 0.2 mm 2 mps 702 mmHg 87%

    Tomorrow, 24 May, Thursday

    Time Temperature Precipitation Wind Pressure Humidity
    00:00 +13°C° 0.2 mm 1 mps 702 mmHg 87%
    01:00 +13°C° 0.2 mm 1 mps 702 mmHg 87%
    02:00 +13°C° 0.2 mm 1 mps 702 mmHg 87%
    03:00 +13°C° 0.2 mm 1 mps 702 mmHg 86%
    04:00 +12°C° 0.2 mm 1 mps 701 mmHg 86%
    05:00 +12°C° 0.2 mm 1 mps 701 mmHg 86%
    06:00 +14°C° 0.2 mm 1 mps 702 mmHg 83%
    07:00 +14°C° 0.2 mm 0 mps 702 mmHg 80%
    08:00 +15°C° 0.2 mm 0 mps 702 mmHg 78%
    09:00 +18°C° 0.1 mm 1 mps 702 mmHg 73%
    10:00 +19°C° 0.1 mm 1 mps 703 mmHg 69%
    11:00 +20°C° 0.1 mm 1 mps 703 mmHg 65%
    12:00 +20°C° 0.3 mm 2 mps 702 mmHg 63%
    13:00 +21°C° 0.3 mm 2 mps 702 mmHg 61%
    14:00 +23°C° 0.3 mm 2 mps 702 mmHg 59%
    15:00 +21°C° 1 mm 2 mps 702 mmHg 61%
    16:00 +21°C° 1 mm 2 mps 701 mmHg 63%
    17:00 +21°C° 1 mm 2 mps 701 mmHg 66%
    18:00 +19°C° 0.4 mm 2 mps 701 mmHg 70%
    19:00 +19°C° 0.4 mm 1 mps 701 mmHg 74%
    20:00 +16°C° 0.4 mm 1 mps 701 mmHg 79%
    21:00 +15°C° 0.2 mm 1 mps 701 mmHg 80%
    22:00 +15°C° 0.2 mm 1 mps 701 mmHg 82%
    23:00 +14°C° 0.2 mm 1 mps 701 mmHg 84%

    Day after tomorrow, 25 May, Friday

    Time Temperature Precipitation Wind Pressure Humidity
    00:00 +14°C° 0.1 mm 1 mps 701 mmHg 84%
    01:00 +14°C° 0.1 mm 1 mps 701 mmHg 85%
    02:00 +13°C° 0.1 mm 1 mps 701 mmHg 85%
    03:00 +13°C° 0 mm 1 mps 701 mmHg 85%
    04:00 +13°C° 0 mm 1 mps 701 mmHg 85%
    05:00 +13°C° 0 mm 1 mps 701 mmHg 85%
    06:00 +14°C° 0 mm 1 mps 701 mmHg 80%
    07:00 +16°C° 0 mm 2 mps 702 mmHg 75%
    08:00 +18°C° 0 mm 2 mps 702 mmHg 70%
    09:00 +19°C° 0.1 mm 2 mps 702 mmHg 65%
    10:00 +20°C° 0.1 mm 2 mps 702 mmHg 60%
    11:00 +22°C° 0.1 mm 3 mps 703 mmHg 55%
    12:00 +22°C° 0.7 mm 3 mps 703 mmHg 56%
    13:00 +22°C° 0.7 mm 3 mps 702 mmHg 56%
    14:00 +22°C° 0.7 mm 3 mps 702 mmHg 57%
    15:00 +22°C° 0.8 mm 3 mps 702 mmHg 60%
    16:00 +21°C° 0.8 mm 3 mps 702 mmHg 63%
    17:00 +21°C° 0.8 mm 3 mps 702 mmHg 67%
    18:00 +19°C° 0.6 mm 2 mps 702 mmHg 72%
    19:00 +17°C° 0.6 mm 2 mps 702 mmHg 77%
    20:00 +16°C° 0.6 mm 1 mps 702 mmHg 82%
    21:00 +15°C° 0 mm 1 mps 702 mmHg 83%
    22:00 +15°C° 0 mm 2 mps 702 mmHg 84%
    23:00 +14°C° 0 mm 2 mps 702 mmHg 84%

    26 May, Saturday

    Time Temperature Precipitation Wind Pressure Humidity
    00:00 +14°C° 0 mm 2 mps 702 mmHg 85%
    01:00 +14°C° 0 mm 2 mps 702 mmHg 85%
    02:00 +14°C° 0 mm 2 mps 702 mmHg 85%
    03:00 +13°C° 0 mm 2 mps 702 mmHg 85%
    04:00 +13°C° 0 mm 2 mps 702 mmHg 86%
    05:00 +12°C° 0 mm 3 mps 702 mmHg 86%
    06:00 +14°C° 0.1 mm 3 mps 702 mmHg 83%
    07:00 +16°C° 0.1 mm 3 mps 703 mmHg 79%
    08:00 +18°C° 0.1 mm 3 mps 703 mmHg 75%
    09:00 +19°C° 0.3 mm 3 mps 704 mmHg 71%
    10:00 +21°C° 0.3 mm 3 mps 704 mmHg 68%
    11:00 +22°C° 0.3 mm 3 mps 704 mmHg 64%
    12:00 +22°C° 0.9 mm 3 mps 704 mmHg 66%
    13:00 +22°C° 0.9 mm 3 mps 704 mmHg 68%
    14:00 +22°C° 0.9 mm 4 mps 704 mmHg 70%
    15:00 +21°C° 1.4 mm 3 mps 704 mmHg 73%
    16:00 +20°C° 1.4 mm 3 mps 704 mmHg 76%
    17:00 +20°C° 1.4 mm 2 mps 704 mmHg 80%
    18:00 +19°C° 1 mm 2 mps 704 mmHg 83%
    19:00 +18°C° 1 mm 2 mps 704 mmHg 87%
    20:00 +16°C° 1 mm 1 mps 704 mmHg 90%
    21:00 +16°C° 0.3 mm 1 mps 704 mmHg 91%
    22:00 +16°C° 0.3 mm 1 mps 705 mmHg 92%
    23:00 +15°C° 0.3 mm 1 mps 705 mmHg 93%

    27 May, Sunday

    Time Temperature Precipitation Wind Pressure Humidity
    00:00 +15°C° 0.1 mm 1 mps 705 mmHg 93%
    01:00 +15°C° 0.1 mm 1 mps 705 mmHg 93%
    02:00 +15°C° 0.1 mm 1 mps 705 mmHg 93%
    03:00 +14°C° 0 mm 1 mps 705 mmHg 94%
    04:00 +14°C° 0 mm 1 mps 704 mmHg 94%
    05:00 +13°C° 0 mm 1 mps 704 mmHg 94%
    06:00 +14°C° 0 mm 2 mps 705 mmHg 89%
    07:00 +15°C° 0 mm 2 mps 705 mmHg 84%
    08:00 +16°C° 0 mm 2 mps 706 mmHg 79%
    09:00 +17°C° 0 mm 2 mps 706 mmHg 71%
    10:00 +19°C° 0 mm 2 mps 706 mmHg 62%
    11:00 +20°C° 0 mm 3 mps 706 mmHg 54%
    12:00 +21°C° 0 mm 3 mps 706 mmHg 53%
    13:00 +21°C° 0 mm 3 mps 706 mmHg 51%
    14:00 +22°C° 0 mm 3 mps 705 mmHg 50%
    15:00 +21°C° 0 mm 3 mps 705 mmHg 52%
    16:00 +21°C° 0 mm 3 mps 705 mmHg 54%
    17:00 +21°C° 0 mm 3 mps 705 mmHg 56%
    18:00 +19°C° 0 mm 2 mps 705 mmHg 63%
    19:00 +17°C° 0 mm 2 mps 705 mmHg 70%
    20:00 +15°C° 0 mm 1 mps 705 mmHg 77%
    21:00 +14°C° 0 mm 1 mps 705 mmHg 80%
    22:00 +13°C° 0 mm 1 mps 705 mmHg 83%
    23:00 +12°C° 0 mm 1 mps 705 mmHg 86%

    28 May, Monday

    Time Temperature Precipitation Wind Pressure Humidity
    00:00 +12°C° 0 mm 1 mps 705 mmHg 87%
    01:00 +11°C° 0 mm 1 mps 704 mmHg 87%
    02:00 +11°C° 0 mm 1 mps 704 mmHg 88%
    03:00 +11°C° 0 mm 1 mps 704 mmHg 87%
    04:00 +10°C° 0 mm 1 mps 704 mmHg 87%
    05:00 +10°C° 0 mm 1 mps 704 mmHg 86%
    06:00 +12°C° 0 mm 1 mps 705 mmHg 77%
    07:00 +14°C° 0 mm 2 mps 705 mmHg 68%
    08:00 +16°C° 0 mm 2 mps 706 mmHg 60%
    09:00 +17°C° 0 mm 2 mps 706 mmHg 55%
    10:00 +19°C° 0 mm 2 mps 706 mmHg 51%
    11:00 +20°C° 0 mm 3 mps 706 mmHg 47%
    12:00 +20°C° 0 mm 3 mps 706 mmHg 46%
    13:00 +21°C° 0 mm 3 mps 706 mmHg 46%
    14:00 +21°C° 0 mm 3 mps 705 mmHg 45%
    15:00 +21°C° 0 mm 3 mps 705 mmHg 48%
    16:00 +21°C° 0 mm 3 mps 705 mmHg 51%
    17:00 +20°C° 0 mm 3 mps 705 mmHg 53%
    18:00 +18°C° 0 mm 3 mps 705 mmHg 60%
    19:00 +16°C° 0 mm 2 mps 705 mmHg 67%
    20:00 +14°C° 0 mm 2 mps 704 mmHg 74%
    21:00 +13°C° 0 mm 1 mps 704 mmHg 76%
    22:00 +13°C° 0 mm 1 mps 704 mmHg 78%
    23:00 +12°C° 0 mm 1 mps 704 mmHg 80%
    Show more